Meteo pe oră la Almondbank

Astăzi, 24 Ianuarie, Duminică

Timp Temperatura Precipitaţii Vânt Presiune Umiditate
00:00 -5°C° 0 mm 2 m/s 738 mmHg 87%
01:00 -4°C° 0 mm 2 m/s 737 mmHg 87%
02:00 -4°C° 0 mm 2 m/s 737 mmHg 87%
03:00 -4°C° 0 mm 2 m/s 737 mmHg 87%
04:00 -4°C° 0 mm 2 m/s 737 mmHg 88%
05:00 -4°C° 0 mm 2 m/s 738 mmHg 89%
06:00 -3°C° 0 mm 2 m/s 738 mmHg 90%
07:00 -3°C° 0 mm 2 m/s 738 mmHg 90%
08:00 -3°C° 0 mm 2 m/s 738 mmHg 90%
09:00 -3°C° 0 mm 2 m/s 738 mmHg 91%
10:00 -3°C° 0 mm 2 m/s 738 mmHg 90%
11:00 -2°C° 0 mm 2 m/s 738 mmHg 89%
12:00 +1°C° 0 mm 1 m/s 739 mmHg 88%
13:00 +1°C° 0 mm 1 m/s 739 mmHg 88%
14:00 +1°C° 0 mm 1 m/s 739 mmHg 89%
15:00 0°C° 0 mm 1 m/s 739 mmHg 89%
16:00 0°C° 0 mm 1 m/s 740 mmHg 89%
17:00 -1°C° 0 mm 1 m/s 740 mmHg 89%
18:00 -2°C° 0 mm 1 m/s 740 mmHg 89%
19:00 -2°C° 0 mm 1 m/s 741 mmHg 89%
20:00 -1°C° 0 mm 1 m/s 741 mmHg 89%
21:00 -1°C° 0 mm 1 m/s 741 mmHg 89%
22:00 -1°C° 0 mm 1 m/s 742 mmHg 89%
23:00 -1°C° 0 mm 1 m/s 742 mmHg 90%

Mâine, 25 Ianuarie, Luni

Timp Temperatura Precipitaţii Vânt Presiune Umiditate
00:00 -1°C° 0 mm 1 m/s 742 mmHg 90%
01:00 -3°C° 0 mm 2 m/s 742 mmHg 91%
02:00 -3°C° 0 mm 2 m/s 743 mmHg 91%
03:00 -4°C° 0 mm 2 m/s 743 mmHg 91%
04:00 -4°C° 0 mm 2 m/s 743 mmHg 91%
05:00 -4°C° 0 mm 2 m/s 743 mmHg 91%
06:00 -4°C° 0 mm 2 m/s 744 mmHg 90%
07:00 -4°C° 0 mm 2 m/s 744 mmHg 90%
08:00 -4°C° 0 mm 2 m/s 744 mmHg 90%
09:00 -3°C° 0 mm 2 m/s 745 mmHg 89%
10:00 -2°C° 0 mm 2 m/s 745 mmHg 88%
11:00 -1°C° 0 mm 2 m/s 746 mmHg 87%
12:00 +1°C° 0 mm 2 m/s 746 mmHg 87%
13:00 +1°C° 0 mm 2 m/s 746 mmHg 87%
14:00 +1°C° 0 mm 2 m/s 747 mmHg 87%
15:00 +1°C° 0 mm 2 m/s 747 mmHg 87%
16:00 -1°C° 0 mm 2 m/s 747 mmHg 87%
17:00 -2°C° 0 mm 2 m/s 748 mmHg 87%
18:00 -2°C° 0 mm 2 m/s 748 mmHg 87%
19:00 -3°C° 0 mm 2 m/s 749 mmHg 87%
20:00 -1°C° 0 mm 1 m/s 749 mmHg 86%
21:00 -1°C° 0 mm 1 m/s 750 mmHg 86%
22:00 -1°C° 0 mm 1 m/s 750 mmHg 86%
23:00 -2°C° 0 mm 1 m/s 750 mmHg 85%

Poimâine, 26 Ianuarie, Marţi

Timp Temperatura Precipitaţii Vânt Presiune Umiditate
00:00 -2°C° 0 mm 1 m/s 750 mmHg 85%
01:00 -2°C° 0 mm 1 m/s 750 mmHg 84%
02:00 -2°C° 0 mm 1 m/s 750 mmHg 84%
03:00 -2°C° 0 mm 1 m/s 750 mmHg 83%
04:00 -2°C° 0 mm 1 m/s 750 mmHg 83%
05:00 -3°C° 0 mm 0 m/s 750 mmHg 83%
06:00 -3°C° 0 mm 0 m/s 749 mmHg 83%
07:00 -1°C° 0 mm 1 m/s 748 mmHg 84%
08:00 -1°C° 0 mm 1 m/s 748 mmHg 85%
09:00 -1°C° 0 mm 1 m/s 747 mmHg 86%
10:00 -2°C° 0.8 mm 2 m/s 746 mmHg 90%
11:00 -2°C° 0.8 mm 2 m/s 745 mmHg 94%
12:00 -1°C° 0.8 mm 2 m/s 745 mmHg 98%
13:00 -1°C° 1.4 mm 2 m/s 744 mmHg 98%
14:00 0°C° 1.4 mm 3 m/s 743 mmHg 98%
15:00 0°C° 1.4 mm 3 m/s 742 mmHg 98%
16:00 +1°C° 0.6 mm 2 m/s 742 mmHg 98%
17:00 +1°C° 0.6 mm 2 m/s 742 mmHg 98%
18:00 +2°C° 0.6 mm 1 m/s 741 mmHg 98%
19:00 +2°C° 0.2 mm 1 m/s 742 mmHg 98%
20:00 +2°C° 0.2 mm 1 m/s 743 mmHg 97%
21:00 +1°C° 0.2 mm 2 m/s 743 mmHg 97%
22:00 +2°C° 0 mm 2 m/s 744 mmHg 96%
23:00 +2°C° 0 mm 2 m/s 745 mmHg 96%

27 Ianuarie, Miercuri

Timp Temperatura Precipitaţii Vânt Presiune Umiditate
00:00 +2°C° 0 mm 3 m/s 745 mmHg 95%
01:00 +1°C° 0 mm 3 m/s 745 mmHg 94%
02:00 +2°C° 0 mm 2 m/s 746 mmHg 94%
03:00 +2°C° 0 mm 2 m/s 746 mmHg 93%
04:00 +2°C° 0 mm 2 m/s 746 mmHg 93%
05:00 +2°C° 0 mm 2 m/s 746 mmHg 94%
06:00 +2°C° 0 mm 2 m/s 746 mmHg 94%
07:00 +2°C° 0 mm 2 m/s 746 mmHg 96%
08:00 +2°C° 0 mm 2 m/s 746 mmHg 97%
09:00 +2°C° 0 mm 2 m/s 746 mmHg 98%
10:00 +3°C° 0.1 mm 2 m/s 746 mmHg 98%
11:00 +4°C° 0.1 mm 1 m/s 746 mmHg 99%
12:00 +4°C° 0.1 mm 1 m/s 746 mmHg 99%
13:00 +4°C° 0.1 mm 1 m/s 745 mmHg 99%
14:00 +4°C° 0.1 mm 1 m/s 745 mmHg 99%
15:00 +5°C° 0.1 mm 1 m/s 744 mmHg 99%
16:00 +5°C° 0.2 mm 1 m/s 743 mmHg 99%
17:00 +5°C° 0.2 mm 1 m/s 742 mmHg 99%
18:00 +5°C° 0.2 mm 1 m/s 741 mmHg 99%
19:00 +5°C° 0.7 mm 1 m/s 741 mmHg 99%
20:00 +5°C° 0.7 mm 1 m/s 740 mmHg 99%
21:00 +5°C° 0.7 mm 1 m/s 739 mmHg 99%
22:00 +5°C° 1.2 mm 1 m/s 738 mmHg 99%
23:00 +5°C° 1.2 mm 1 m/s 737 mmHg 99%

28 Ianuarie, Joi

Timp Temperatura Precipitaţii Vânt Presiune Umiditate
00:00 +5°C° 1.2 mm 1 m/s 736 mmHg 99%
01:00 +5°C° 0.3 mm 1 m/s 736 mmHg 99%
02:00 +5°C° 0.3 mm 1 m/s 735 mmHg 99%
03:00 +4°C° 0.3 mm 0 m/s 734 mmHg 99%
04:00 +5°C° 0.7 mm 1 m/s 734 mmHg 99%
05:00 +5°C° 0.7 mm 1 m/s 734 mmHg 99%
06:00 +5°C° 0.7 mm 1 m/s 733 mmHg 99%
07:00 +5°C° 0.1 mm 1 m/s 734 mmHg 99%
08:00 +4°C° 0.1 mm 2 m/s 735 mmHg 99%
09:00 +4°C° 0.1 mm 2 m/s 736 mmHg 99%
10:00 +4°C° 0 mm 3 m/s 737 mmHg 99%
11:00 +4°C° 0 mm 3 m/s 738 mmHg 99%
12:00 +4°C° 0 mm 3 m/s 739 mmHg 98%
13:00 +4°C° 0 mm 3 m/s 740 mmHg 98%
14:00 +3°C° 0 mm 3 m/s 741 mmHg 98%
15:00 +4°C° 0 mm 2 m/s 742 mmHg 98%
16:00 +3°C° 0 mm 2 m/s 742 mmHg 98%
17:00 +4°C° 0 mm 1 m/s 742 mmHg 97%
18:00 +3°C° 0 mm 1 m/s 742 mmHg 97%

29 Ianuarie, Vineri

Timp Temperatura Precipitaţii Vânt Presiune Umiditate
Arată mai mult

Formular de consimțământ

Meteoprog și furnizorii noștri de servicii pot stoca și accesa date personale, precum cookies, identificatori de dispozitiv sau alte tehnologii similare pe dispozitivul dumneavoastră și procesa astfel de date pentru a personaliza conținutul și reclamele, dar și pentru a oferi caracteristici de social media și pentru a analiza traficul.

  • Stocarea și/sau accesarea informațiilor pe dispozitivul dumneavoastră

    Cookies, identificatori de dispozitiv sau alte informații pot fi stocate sau accesate pe dispozitiv în scopurile indicate mai sus.

  • Reclame și conținut personalizat, evaluarea reclamelor și a conținutului, informații despre audiențe și dezvoltarea produselor

    Reclamele și conținutul pot fi personalizate pe baza unui profil. Pot fi adăugate date suplimentare pentru a personaliza mai bine reclamele și conținutul. Performanța reclamelor și conținutului poate fi măsurată. Pot fi obținute informații despre utilizatorii care au văzut reclamele și conținutul. Aceste date pot fi utilizate pentru a dezvolta sau îmbunătăți experiența utilizatorilor, sistemele și software-ul.

Dând clic pe ‘Sunt de acord’, permiteți utilizarea cookie-urilor menționate, a identificatorilor de dispozitiv, balizelor web sau altor tehnologii similare. Setările pot fi modificate din browser-ul dispozitivului dumneavoastră.

În anumite scopuri, interesele legitime pot prima asupra consimțământului. Puteți citi mai multe informații în acest sens în Politica privind Confidențialitatea Datelor și Cookie.